{"data":{"norad_id":64680,"epoch":"2026-05-25T03:13:48.925056Z","epoch_age_seconds":63287,"freshness":"FRESH","line1":"1 64680U 25139S   26145.13459404  .00025479  00000+0  76220-3 0  9998","line2":"2 64680  53.1587 130.8611 0001547  66.5454 293.5711 15.34418952 52009","mean_motion":15.34418952,"eccentricity":0.0001547,"inclination_deg":53.1587,"raan_deg":130.8611,"arg_perigee_deg":66.5454,"mean_anomaly_deg":293.5711,"bstar":0.0007622,"rev_number":5200,"period_min":93.846598943728,"perigee_km":461.58864217783,"apogee_km":463.70518072003,"semimajor_km":6840.7839114489,"source":"CELESTRAK","updated_at":"2026-05-25T13:38:20.506337Z"}}